Flag for U.S.A. Weather past 2 weeks in Wichita Falls, Texas, U.S.A.

Now
97 °F

Sunny.


Feels Like: 101 °F
Forecast: 76 / 99 °F
Wind: 10 mph from South

Location: Wichita Falls - Sheppard Air Force Base

Current Time: Jul 26, 2014 at 2:49:53 PM

Latest Report: Jul 26, 2014 at 1:52 PM


Visibility: 10 mi

Pressure: 29.89 "Hg

Humidity: 37%

Dew point: 67 °F

Location of Wichita FallsLocation

Historic Weather in Wichita Falls — Graph

°F

Wichita Falls temperature yesterday

Maximum temperature yesterday: 99 °F (at 4:52 PM)
Minimum temperature yesterday: 71 °F (at 6:52 AM)
Average temperature yesterday: 86 °F

Past Weeks' High & Low Weather Summary

 TemperatureHumidityPressure
High100 °F (Jul 13, 3:52 PM)100% (Jul 17, 6:59 AM)30.11 "Hg (Jul 17, 6:59 AM)
Low62 °F (Jul 19, 5:52 AM)17% (Jul 12, 5:52 PM)29.82 "Hg (Jul 25, 6:52 PM)
Average80 °F63%29.97 "Hg
* Reported Jul 11 12:52 PM — Jul 26 12:52 PM, Wichita Falls, Weather by CustomWeather, © 2014

Note: Actual official high and low records may vary slightly from our data, if they occured in-between our weather recording intervals... More about our weather records

Advertising

Wichita Falls weather history for previous 24 hours

 ConditionsComfort  
Time TempWeatherWind HumidityBarometerVisibility
12:52 PM
Jul 26
95 °FSunny.13 mph43%29.91 "Hg10 mi
11:52 AM93 °FSunny.12 mph46%29.93 "Hg10 mi
10:52 AM90 °FSunny.14 mph48%29.93 "Hg10 mi
9:52 AM87 °FSunny.15 mph53%29.93 "Hg10 mi
8:52 AM83 °FSunny.13 mph61%29.92 "Hg10 mi
7:52 AM78 °FSunny.12 mph71%29.91 "Hg10 mi
6:52 AM75 °FClear.9 mph76%29.90 "Hg10 mi
5:52 AM75 °FClear.8 mph74%29.89 "Hg10 mi
4:52 AM77 °FClear.10 mph69%29.87 "Hg10 mi
3:52 AM79 °FClear.12 mph62%29.86 "Hg10 mi
2:52 AM79 °FClear.10 mph62%29.86 "Hg10 mi
1:52 AM79 °FClear.10 mph62%29.88 "Hg10 mi
12:52 AM81 °FClear.12 mph56%29.87 "Hg10 mi
11:52 PM
Jul 25
84 °FClear.13 mph51%29.87 "Hg10 mi
10:52 PM85 °FClear.N/A51%29.86 "Hg10 mi
9:52 PM86 °FClear.10 mph51%29.85 "Hg10 mi
8:52 PM89 °FSunny.12 mph48%29.83 "Hg10 mi
7:52 PM93 °FSunny.10 mph36%29.82 "Hg10 mi
6:52 PM98 °FSunny.15 mph26%29.82 "Hg10 mi
5:52 PM98 °FSunny.16 mph29%29.83 "Hg10 mi
4:52 PM99 °FSunny.12 mph30%29.84 "Hg10 mi
3:52 PM98 °FSunny.15 mph31%29.86 "Hg10 mi
2:52 PM98 °FPassing clouds.15 mph36%29.87 "Hg10 mi
Weather by CustomWeather, © 2014

See weather overviewHow to use our weather pages